Tracking 31027 objects as of 19-Jul-2025
HD Live streaming from Space Station
objects crossing your sky now

SL-8 R/B

Track SL-8 R/B now!
10-day predictions


NORAD ID: 23093
Int'l Code: 1994-024B
Perigee: 969.8 km
Apogee: 985.0 km
Inclination: 82.9 °
Period: 104.5 minutes
Semi major axis: 7348 km
RCS: 8.1603 m2 (large)
Launch date: April 26, 1994
Source: Commonwealth of Independent States (former USSR) (CIS)
Launch site: PLESETSK MISSILE AND SPACE COMPLEX (PKMTR)

Note: This is a ROCKET BODY
Your satellite tracking list
ATLAS 2A CENTAUR R/B
Track 1 satellite(s)




NASA's NSSDC Master Catalog

Two Line Element Set (TLE):
1 23093U 94024B   25199.78194397  .00000071  00000-0  55165-4 0  9994
2 23093  82.9440  76.9097 0010390  12.0156 348.1248 13.78201275 37941
Source of the keplerian elements: AFSPC